Temperature
20 21 22 23 22 21 21 20 20 21 21 22 21 21 23 23 23 23 23 23 24 24 23 23 23 22 22 22 21 21 20 20 19 19 18 18 18 17 17 16 16 16 16 15
21 21 22 22 22 22 22 21 21 22 21 21 21 22 22 23 23 23 23 24 24 24 23 23 23 22 22 22 21 21 20 20 19 19 18 18 17 17 16 16 16 16 15 15
19 20 22 22 21 21 22 21 21 21 21 21 21 20 22 23 23 23 24 24 24 24 24 24 23 23 22 22 21 21 20 20 19 19 18 18 17 17 16 16 16 15 15 15
17 20 21 20 20 21 21 21 20 20 20 20 20 22 23 23 24 24 24 24 24 24 24 24 23 23 22 22 21 21 20 20 19 18 18 17 17 17 16 16 15 15 15 15
15 18 19 20 20 20 20 20 20 19 19 20 21 21 22 23 24 24 25 24 24 24 24 23 23 22 22 21 21 20 20 19 19 18 18 17 17 17 16 16 15 15 15 14
15 18 19 20 20 20 20 20 19 19 19 19 20 19 20 23 24 24 24 24 24 23 23 23 22 22 21 21 20 20 20 19 19 18 18 17 17 16 16 15 15 15 14 14
15 17 17 18 18 20 20 20 19 19 19 19 19 20 22 23 23 24 24 23 23 23 22 22 22 21 21 21 20 20 19 19 18 18 17 16 16 16 15 15 15 14 14 14
14 16 17 18 18 18 18 19 19 19 20 20 20 21 21 22 23 23 23 23 23 22 22 21 21 21 21 21 20 20 19 18 18 17 17 16 16 15 15 15 14 14 14 14
14 15 16 17 17 18 19 19 19 19 20 20 20 20 21 22 22 22 22 22 22 22 22 21 21 21 21 20 20 19 19 18 18 17 16 16 16 15 15 15 14 14 14 14
13 14 15 17 18 18 19 19 19 19 19 20 20 20 21 21 21 21 21 21 21 21 21 21 20 20 20 20 19 19 18 18 17 17 16 16 15 15 15 15 14 14 14 13
13 14 15 17 17 18 18 18 18 19 19 19 19 20 20 20 20 20 20 20 20 20 21 20 20 19 19 19 19 18 18 17 17 16 16 16 16 15 15 15 14 14 14 13
13 14 14 16 17 17 18 18 18 18 18 19 19 19 19 19 20 20 20 19 19 19 20 20 19 19 18 18 18 18 17 17 17 16 16 16 15 15 15 14 14 13 13 13
16 16 16 16 16 17 17 17 17 18 18 18 18 19 19 19 19 19 19 19 19 18 18 18 18 18 18 18 17 17 17 17 16 16 15 15 15 15 14 14 14 13 13 13
16 16 15 16 16 16 17 17 17 17 17 17 18 18 18 18 18 18 18 18 18 18 18 17 17 17 17 17 17 17 16 16 16 16 15 15 15 14 14 14 14 13 13 13
15 16 15 16 16 16 16 16 16 17 17 17 17 17 17 17 17 17 17 17 17 17 17 17 17 17 16 16 16 16 16 16 16 15 15 15 15 14 14 14 13 13 13 13
15 15 15 15 15 15 16 16 16 16 16 16 16 17 16 16 16 16 16 16 17 17 17 16 16 16 16 16 16 16 16 15 15 15 15 15 14 14 13 13 13 13 13 13
14 14 15 15 15 15 15 15 16 16 16 16 16 16 16 16 16 16 16 16 16 16 16 16 15 15 15 15 15 15 15 15 15 14 14 14 14 14 13 13 13 13 13 12
14 14 15 15 15 15 15 15 15 15 15 15 15 15 15 15 15 15 15 15 15 15 15 15 15 15 15 15 15 15 14 14 14 14 14 14 14 13 13 13 13 13 12 12
14 14 14 15 15 14 14 14 15 15 15 15 15 15 15 15 15 15 15 15 15 15 15 15 15 15 15 15 14 14 14 14 14 14 13 13 13 13 13 13 13 13 12 12
14 14 14 14 14 14 14 14 14 14 14 14 14 14 14 14 14 14 14 14 14 14 14 14 14 14 14 14 14 14 14 14 13 13 13 13 13 12 12 12 12 12 12 12
13 13 13 13 14 13 13 13 14 14 14 14 14 14 14 13 13 13 13 13 14 14 13 13 14 14 13 13 13 13 13 13 13 13 13 13 12 12 12 12 12 12 12 12
13 13 13 13 13 13 13 13 13 13 13 13 13 13 13 13 13 13 13 13 13 13 13 13 13 13 13 13 13 13 13 13 13 12 12 12 12 12 12 12 12 12 12 12
12 12 12 12 12 12 12 12 12 12 12 12 12 12 12 12 12 12 12 12 12 12 12 13 13 13 13 13 13 12 12 12 12 12 12 12 12 12 12 12 12 12 12 11
12 12 12 12 12 12 12 12 12 12 12 12 12 12 12 12 12 12 12 12 12 12 12 12 12 12 12 12 12 12 12 12 12 12 12 12 12 12 12 11 11 11 11 11
11 11 11 11 11 11 11 11 11 11 11 11 11 11 11 11 11 11 11 11 11 11 11 12 12 12 12 12 12 12 12 12 12 12 12 12 12 11 11 11 11 11 11 11
11 11 11 11 11 11 11 11 11 11 11 11 11 11 11 11 11 11 11 11 11 11 11 11 11 11 11 11 11 12 12 12 12 12 12 11 11 11 11 11 11 11 10 10
11 11 11 11 10 10 10 10 10 10 10 10 10 10 10 10 10 10 10 10 10 11 11 11 11 11 11 11 11 11 11 11 11 11 11 11 11 11 11 11 10 10 10 10
Wind_Speed
4 3 4 4 5 6 6 8 9 9 8 10 8 8 6 4 5 6 7 8 9 9 9 9 9 9 9 9 9 9 9 8 7 6 5 5 5 5 5 5 5 5 5 5
0 1 3 2 3 5 5 5 5 4 7 7 5 2 3 5 7 8 9 9 9 9 10 10 11 10 10 10 10 10 10 9 7 6 6 5 5 5 6 5 5 5 5 5
2 3 2 2 5 5 3 3 5 6 8 5 3 4 6 7 8 10 10 10 10 10 11 11 11 11 12 11 10 10 10 9 8 8 7 6 6 6 5 5 5 5 4 4
3 3 5 7 3 3 4 3 3 4 5 5 6 5 3 3 7 7 7 8 9 9 9 9 9 9 9 9 10 10 10 9 8 8 7 7 6 6 5 4 5 4 4 3
4 4 4 5 1 1 2 3 2 3 3 3 2 2 3 2 4 7 7 7 7 8 9 9 10 10 11 10 10 10 10 10 9 9 9 8 7 6 5 5 4 3 3 3
5 5 7 7 4 3 3 3 3 1 2 1 3 1 5 4 3 3 3 4 5 6 7 10 10 11 11 11 11 11 10 10 10 10 9 9 8 6 4 4 4 4 3 2
5 4 6 6 5 1 5 6 4 2 2 2 3 5 5 3 2 2 3 4 6 8 8 8 10 11 12 11 11 10 10 10 9 9 9 8 7 6 6 5 5 4 3 2
5 4 6 3 1 3 5 3 2 2 2 2 3 3 3 1 0 1 2 4 7 7 7 7 9 10 10 11 10 10 10 10 10 9 9 8 8 7 7 7 6 4 3 2
6 6 5 2 3 3 3 2 3 2 3 2 2 2 1 0 1 2 2 4 6 7 7 6 8 9 10 9 10 11 11 10 9 9 8 8 9 8 7 6 5 4 4 3
2 4 4 4 3 2 1 2 3 2 2 1 1 1 0 1 2 2 2 4 5 7 7 6 6 7 8 9 11 11 11 10 9 10 9 8 7 7 7 7 6 5 5 4
2 4 4 4 2 2 2 2 2 2 2 1 0 1 0 0 1 2 2 2 4 6 7 6 6 6 6 9 11 11 11 10 9 8 8 7 6 6 7 6 7 7 6 5
6 6 4 4 4 2 1 1 1 1 3 3 1 0 1 0 1 2 3 3 3 4 5 5 6 6 6 8 10 11 9 9 8 7 7 7 6 4 2 3 6 8 7 7
6 4 4 4 4 2 1 1 1 0 1 2 2 1 1 1 1 2 3 3 4 4 4 5 5 6 5 7 8 9 9 8 7 7 8 7 7 7 5 2 2 4 6 8
4 2 2 3 3 3 2 2 1 2 2 1 1 1 1 2 2 2 2 2 3 3 3 4 5 4 5 6 8 8 7 8 7 7 7 7 7 6 6 6 4 3 3 6
4 4 4 3 2 2 2 0 1 1 2 2 2 2 2 2 1 1 1 2 3 4 3 3 4 4 4 6 7 8 7 6 6 6 6 6 6 6 6 6 5 4 2 2
2 1 2 1 2 2 1 1 2 1 1 1 1 2 2 1 1 2 2 2 3 3 3 3 3 3 4 6 7 6 6 8 7 6 6 6 6 6 6 6 6 5 5 5
3 2 2 2 3 3 3 3 3 2 1 1 1 1 2 2 2 2 1 1 1 2 2 3 3 3 4 5 6 5 5 6 8 6 6 7 7 7 7 7 7 6 6 6
5 5 5 4 4 3 3 2 2 2 3 3 2 2 2 2 1 0 1 1 0 0 1 3 3 4 5 6 6 5 5 6 7 7 6 6 7 7 7 7 7 7 5 5
3 3 3 3 3 3 3 3 3 2 2 2 2 2 1 1 1 0 0 0 1 2 2 2 3 4 4 6 6 5 6 6 6 6 6 6 6 6 6 7 7 7 6 6
0 0 0 1 1 2 2 2 1 1 1 1 2 1 1 1 1 1 1 1 2 2 2 2 2 3 4 5 6 5 6 6 6 6 6 6 7 7 7 7 7 6 6 7
1 1 1 1 1 1 1 1 2 1 1 1 2 2 1 1 0 1 1 1 3 2 2 2 2 2 3 4 5 5 5 5 6 6 6 6 7 7 6 7 7 7 7 7
0 1 2 1 0 1 1 0 1 2 1 1 1 1 2 1 0 0 1 2 2 2 1 1 1 2 3 4 3 4 4 5 5 5 5 6 7 7 7 7 7 7 7 6
0 0 1 1 1 1 2 2 1 1 2 1 1 1 1 2 1 1 2 2 1 1 1 1 1 2 3 3 3 3 4 5 5 5 5 6 7 7 7 7 7 6 6 6
1 2 2 1 2 3 2 2 1 1 1 1 0 1 1 0 1 1 2 2 2 1 1 1 1 0 1 2 2 3 3 4 4 5 5 5 5 6 6 6 6 5 5 6
2 1 1 2 2 1 1 1 2 2 2 1 1 1 1 1 1 1 1 1 1 1 1 1 1 1 1 0 1 2 3 3 3 4 4 4 5 5 5 5 5 5 5 5
2 1 1 0 0 0 0 1 1 1 1 1 2 2 2 1 1 1 1 1 1 1 1 1 1 1 1 1 1 1 2 2 2 3 3 3 4 4 4 5 5 5 4 4
2 2 2 2 2 1 1 1 1 1 0 0 1 2 2 2 2 2 2 2 2 2 2 2 2 2 1 1 1 1 1 1 0 1 1 2 2 3 3 4 4 4 4 4
Wind_Direction
212 214 186 180 184 180 175 176 181 222 225 253 254 247 238 207 180 166 173 180 184 184 181 175 174 175 175 170 164 159 157 160 166 164 155 139 129 122 117 109 107 102 94 83
67 287 193 178 194 188 197 182 202 215 246 259 271 239 224 194 183 188 192 192 189 185 182 180 178 178 175 171 166 160 160 164 161 153 148 140 134 127 116 107 102 96 92 91
216 305 80 229 218 196 191 191 175 205 240 275 269 227 218 204 194 199 198 194 190 190 189 185 181 177 176 170 160 161 162 162 161 159 155 150 144 133 126 120 110 100 95 94
139 107 206 238 259 193 172 199 214 235 258 254 247 244 228 204 201 210 204 198 196 189 185 182 173 170 165 158 161 162 159 159 160 159 153 147 143 141 134 125 119 113 107 102
129 166 248 288 283 139 169 251 236 233 275 292 341 33 324 263 214 213 207 201 200 188 177 167 164 160 154 160 163 161 164 164 163 161 156 153 151 149 143 134 126 122 122 116
131 155 212 238 273 280 160 256 282 228 243 222 81 76 272 294 249 219 188 174 173 165 154 158 159 150 153 164 166 173 172 170 164 161 160 162 161 154 143 140 138 131 118 112
149 185 247 260 288 37 151 243 284 263 244 197 192 219 261 293 282 206 161 159 157 155 160 162 157 154 160 169 181 177 163 161 159 158 161 163 158 152 144 137 131 125 118 101
147 171 242 283 58 152 219 265 274 266 260 243 234 251 264 272 333 91 105 127 141 147 155 156 157 160 167 179 175 160 158 163 165 163 163 167 161 155 150 146 143 143 137 116
185 207 245 269 229 249 222 247 274 271 278 226 212 229 243 228 89 95 120 137 142 143 143 151 160 164 175 176 160 158 163 168 166 165 165 163 163 161 158 157 159 168 171 176
249 271 279 298 300 300 255 247 273 274 284 247 222 247 195 113 104 109 133 145 144 142 147 159 167 172 175 165 160 161 167 169 168 166 166 167 168 168 169 173 176 181 187 194
254 276 317 324 319 315 352 12 20 8 357 331 111 20 334 170 148 136 117 118 140 150 156 160 163 167 163 163 161 164 168 169 171 173 169 172 169 174 179 187 188 186 194 193
223 229 207 258 279 292 18 348 350 21 355 339 301 266 58 69 138 137 134 134 142 148 152 160 166 167 167 165 165 162 165 169 176 176 173 171 167 157 132 169 179 186 186 183
230 233 215 251 286 291 270 279 291 6 330 310 316 22 81 78 100 126 133 139 149 157 160 160 166 167 170 169 166 166 170 171 172 173 173 174 174 177 178 153 145 185 192 190
229 200 248 250 248 276 284 289 342 23 9 343 333 32 80 88 106 128 147 159 150 139 142 153 167 172 171 168 165 167 167 168 170 174 174 175 179 183 183 183 190 207 212 200
252 220 217 240 272 288 278 213 84 33 24 12 30 52 61 79 101 136 143 138 130 128 142 166 183 188 170 164 161 164 165 167 173 176 176 174 174 177 185 191 197 197 185 189
239 218 200 209 238 249 251 194 168 240 328 358 45 48 46 74 80 76 86 112 131 150 172 185 202 197 170 162 160 165 167 168 170 174 174 173 178 187 193 197 199 200 205 197
174 211 230 241 249 247 244 232 208 211 214 204 168 115 92 88 75 54 35 34 162 171 175 189 199 180 169 171 168 170 169 172 169 173 183 186 190 194 196 198 201 206 212 199
214 217 217 217 228 239 257 256 227 212 206 209 175 126 108 109 115 23 320 330 26 67 219 210 198 186 182 183 180 176 179 181 183 187 188 191 196 196 195 200 203 204 202 194
207 207 214 217 222 218 227 242 241 222 207 173 151 155 151 148 158 139 64 57 297 291 288 256 211 200 197 193 183 182 183 185 187 188 189 189 194 198 199 203 207 207 202 196
106 116 178 258 233 193 205 220 200 175 188 163 155 132 77 59 158 148 138 214 260 261 267 264 229 213 206 195 183 188 189 190 194 195 194 194 200 203 204 208 210 209 206 203
103 45 348 328 351 331 236 209 172 176 236 163 158 164 183 226 206 135 138 293 301 294 275 257 231 214 201 189 182 190 194 195 200 203 200 203 206 207 208 209 210 211 212 211
302 357 330 320 11 324 310 279 158 164 137 124 131 153 165 184 231 306 253 244 266 291 297 272 237 211 196 189 195 202 207 206 206 206 205 206 205 209 213 212 212 213 214 214
291 337 342 339 352 341 4 21 82 120 112 117 137 174 195 204 213 209 284 285 269 295 319 309 270 205 195 199 203 205 208 209 208 208 211 213 211 212 215 215 214 212 211 211
45 37 11 1 47 61 40 13 33 74 101 110 150 182 199 257 302 283 256 272 288 307 331 335 339 284 191 194 199 203 209 213 215 216 216 214 210 209 210 211 213 213 210 206
45 38 38 45 43 20 12 26 34 41 60 53 32 0 331 263 255 296 314 325 344 3 346 339 349 348 348 260 227 219 217 219 220 221 220 213 212 210 208 207 206 204 203 200
30 15 359 9 338 307 335 67 50 29 43 30 5 6 6 348 345 359 358 354 7 21 17 8 15 12 2 340 302 266 243 226 217 213 208 206 206 202 199 199 196 195 191 186
30 27 39 36 19 15 66 92 79 11 3 29 357 355 6 2 19 34 27 20 33 38 30 20 20 24 21 15 14 18 24 35 134 173 185 196 200 199 194 187 184 183 180 175
Height
1500 1498 1497 1498 1500 1503 1506 1511 1519 1514 1511 1499 1493 1491 1490 1491 1493 1495 1498 1500 1503 1506 1509 1513 1517 1520 1524 1527 1530 1532 1535 1538 1539 1541 1542 1542 1543 1543 1543 1543 1543 1543 1543 1543
1500 1496 1496 1497 1497 1499 1500 1502 1504 1503 1502 1490 1489 1489 1489 1490 1491 1493 1494 1497 1500 1504 1507 1510 1514 1518 1521 1524 1528 1530 1533 1535 1537 1539 1540 1541 1542 1542 1542 1542 1542 1542 1542 1542
1510 1501 1497 1505 1498 1497 1497 1496 1498 1502 1496 1488 1488 1487 1487 1487 1488 1489 1491 1494 1497 1500 1504 1507 1511 1515 1518 1522 1525 1528 1530 1533 1535 1537 1538 1539 1540 1541 1540 1541 1540 1541 1542 1542
1513 1507 1515 1503 1490 1490 1492 1493 1492 1491 1488 1487 1486 1485 1485 1486 1487 1488 1489 1492 1494 1498 1501 1504 1508 1513 1517 1521 1524 1526 1528 1530 1533 1535 1536 1537 1538 1539 1539 1540 1540 1541 1542 1542
1518 1516 1509 1497 1490 1490 1493 1493 1489 1488 1486 1485 1484 1484 1484 1484 1485 1486 1488 1490 1493 1495 1498 1502 1505 1510 1514 1518 1521 1524 1526 1528 1530 1533 1534 1535 1536 1537 1538 1539 1540 1540 1541 1542
1515 1514 1517 1499 1487 1486 1490 1495 1487 1485 1485 1485 1485 1490 1485 1483 1483 1484 1486 1488 1491 1494 1497 1499 1502 1506 1511 1514 1517 1520 1523 1526 1528 1530 1532 1534 1535 1536 1538 1539 1539 1540 1541 1541
1511 1511 1505 1490 1485 1485 1499 1496 1485 1484 1484 1484 1485 1485 1484 1482 1482 1483 1484 1486 1488 1491 1494 1497 1500 1503 1506 1510 1514 1518 1521 1524 1526 1528 1530 1531 1533 1535 1536 1538 1539 1540 1540 1541
1510 1511 1506 1486 1485 1489 1490 1484 1483 1483 1482 1483 1482 1482 1481 1481 1481 1481 1482 1484 1486 1488 1492 1495 1498 1502 1505 1507 1511 1515 1519 1521 1523 1525 1526 1528 1530 1533 1534 1536 1537 1539 1539 1540
1499 1498 1488 1485 1485 1484 1483 1483 1482 1482 1481 1481 1480 1480 1479 1479 1479 1480 1481 1482 1484 1487 1489 1492 1495 1499 1502 1505 1509 1512 1515 1518 1519 1521 1523 1526 1528 1530 1532 1534 1535 1536 1538 1538
1493 1488 1485 1483 1482 1482 1482 1481 1481 1481 1481 1480 1479 1478 1478 1478 1478 1479 1481 1482 1483 1485 1487 1490 1493 1496 1500 1502 1505 1508 1511 1513 1515 1517 1520 1523 1525 1528 1530 1531 1533 1534 1535 1536
1491 1486 1483 1482 1481 1481 1480 1480 1480 1480 1480 1480 1479 1478 1478 1477 1478 1478 1480 1481 1483 1483 1485 1487 1491 1494 1497 1499 1502 1505 1507 1510 1512 1515 1517 1519 1522 1525 1527 1529 1531 1532 1533 1535
1488 1483 1483 1482 1481 1480 1479 1479 1479 1479 1479 1479 1479 1478 1477 1478 1478 1479 1480 1481 1482 1483 1484 1486 1489 1492 1494 1497 1499 1501 1503 1506 1509 1512 1515 1517 1520 1523 1525 1527 1528 1529 1531 1532
1481 1480 1481 1480 1480 1479 1479 1479 1479 1479 1478 1479 1478 1477 1477 1477 1478 1479 1479 1481 1481 1483 1484 1485 1487 1489 1491 1494 1496 1499 1501 1504 1506 1509 1512 1514 1517 1519 1521 1524 1525 1526 1528 1529
1478 1479 1478 1478 1478 1478 1478 1478 1478 1478 1478 1479 1479 1478 1477 1477 1477 1478 1478 1479 1481 1483 1484 1485 1487 1488 1490 1492 1494 1497 1499 1502 1505 1507 1509 1512 1514 1517 1519 1520 1522 1523 1525 1526
1476 1476 1476 1475 1475 1476 1476 1477 1476 1476 1477 1477 1477 1476 1476 1475 1476 1476 1478 1479 1479 1481 1483 1484 1486 1487 1489 1490 1492 1494 1497 1499 1502 1505 1506 1508 1511 1513 1516 1518 1519 1520 1522 1523
1473 1473 1474 1474 1474 1474 1474 1474 1474 1474 1475 1475 1475 1475 1476 1476 1476 1476 1476 1477 1478 1479 1481 1483 1485 1486 1487 1488 1490 1492 1494 1497 1499 1501 1503 1505 1507 1510 1512 1514 1515 1517 1518 1519
1470 1471 1471 1471 1472 1472 1472 1472 1472 1472 1473 1473 1474 1475 1475 1476 1476 1476 1476 1477 1478 1477 1479 1481 1483 1484 1485 1486 1488 1489 1492 1494 1496 1498 1500 1501 1503 1505 1507 1510 1511 1513 1514 1516
1468 1469 1469 1469 1469 1469 1469 1469 1470 1470 1471 1472 1473 1473 1474 1474 1474 1475 1476 1476 1477 1477 1478 1479 1480 1482 1483 1484 1486 1487 1489 1491 1492 1494 1496 1497 1499 1501 1503 1505 1506 1507 1509 1511
1465 1466 1466 1466 1467 1467 1467 1467 1467 1467 1468 1469 1470 1471 1472 1472 1473 1474 1475 1475 1475 1475 1476 1476 1477 1478 1479 1480 1482 1483 1485 1487 1488 1490 1492 1494 1496 1497 1499 1501 1502 1503 1505 1506
1462 1463 1463 1463 1463 1463 1463 1464 1464 1465 1466 1467 1468 1468 1469 1470 1472 1472 1473 1473 1473 1473 1473 1474 1475 1475 1476 1477 1478 1480 1481 1482 1484 1486 1488 1489 1491 1493 1495 1496 1497 1499 1500 1501
1460 1461 1461 1461 1461 1461 1461 1461 1461 1462 1464 1465 1465 1466 1467 1468 1469 1470 1470 1470 1471 1471 1471 1471 1472 1472 1473 1474 1475 1476 1477 1478 1481 1482 1483 1485 1487 1489 1490 1492 1493 1494 1496 1497
1459 1459 1459 1459 1459 1459 1459 1459 1459 1460 1461 1462 1463 1464 1465 1466 1467 1467 1467 1468 1468 1469 1468 1468 1469 1469 1470 1471 1472 1473 1474 1475 1477 1478 1479 1481 1483 1485 1486 1487 1489 1490 1491 1492
1458 1458 1458 1458 1457 1457 1457 1457 1457 1458 1459 1460 1461 1462 1462 1463 1464 1464 1464 1465 1466 1466 1465 1465 1466 1467 1467 1468 1469 1470 1471 1472 1474 1475 1476 1478 1479 1481 1482 1483 1484 1485 1486 1487
1457 1457 1458 1457 1456 1456 1456 1457 1457 1457 1458 1458 1459 1460 1460 1461 1461 1462 1462 1462 1463 1463 1463 1463 1463 1464 1465 1466 1467 1468 1469 1470 1471 1472 1473 1474 1475 1476 1477 1478 1479 1480 1481 1481
1457 1457 1458 1457 1456 1456 1456 1457 1456 1456 1457 1457 1458 1458 1459 1459 1459 1459 1460 1460 1460 1461 1461 1461 1461 1462 1462 1463 1464 1465 1466 1467 1468 1469 1469 1470 1471 1472 1473 1473 1474 1475 1476 1477
1458 1458 1458 1457 1457 1457 1456 1456 1455 1455 1456 1456 1456 1457 1457 1457 1458 1458 1458 1459 1459 1460 1460 1460 1460 1461 1461 1461 1462 1463 1464 1464 1465 1466 1466 1467 1468 1468 1469 1469 1470 1471 1471 1472
1458 1458 1458 1457 1457 1457 1456 1456 1456 1456 1456 1456 1456 1456 1456 1457 1457 1457 1457 1458 1458 1459 1459 1459 1459 1460 1460 1460 1460 1461 1461 1462 1462 1463 1463 1464 1464 1465 1465 1466 1467 1468 1468 1469